EHI
0 0 0 0 0 0 0 0 0 0 0 0 0 0 0 0 0 0 0 0 0 0 0 0 0 0 0 0 0 0 1 8 30 57 66 55 39 28 19 9 3 1 0 0
0 0 0 0 0 0 0 0 0 0 0 0 0 0 0 0 0 0 0 0 0 0 0 0 0 0 0 0 0 0 0 4 18 41 56 54 43 34 25 15 6 2 0 0
0 0 0 0 0 0 0 0 0 0 0 0 0 0 0 0 0 0 0 0 0 0 0 0 0 0 0 0 0 0 0 1 6 19 34 42 40 33 29 23 14 5 1 0
0 0 0 0 0 0 0 0 0 0 0 0 0 0 0 0 0 0 0 0 0 0 0 0 0 0 0 0 0 0 0 0 2 6 14 24 28 25 23 22 16 8 2 0
0 0 0 0 0 0 0 0 0 0 0 0 0 0 0 0 0 0 0 0 0 0 0 0 0 0 0 0 0 0 0 0 1 2 5 10 13 13 12 11 9 6 3 1
0 0 0 0 0 0 0 0 0 0 0 0 0 0 0 0 0 0 0 0 0 0 0 0 0 0 0 0 0 0 0 0 0 1 1 2 2 2 1 1 2 2 2 1
0 0 0 0 0 0 0 0 0 0 0 0 0 0 0 0 0 0 0 0 0 0 0 0 0 0 0 0 0 0 0 0 0 0 0 0 0 0 0 0 0 0 0 0
0 0 0 0 0 0 0 0 0 0 0 0 0 0 0 0 0 0 0 0 0 0 0 0 0 0 0 0 0 0 0 0 0 0 0 0 0 0 0 0 0 0 0 0
0 0 0 0 0 0 0 0 0 0 0 0 0 0 0 0 0 0 0 0 0 0 0 0 0 0 0 0 0 0 0 0 0 0 0 0 0 0 0 0 0 0 0 0
0 0 0 0 0 0 0 0 0 0 0 0 0 0 0 0 0 0 0 0 0 0 0 0 0 0 0 0 0 0 0 0 0 0 0 0 0 0 0 0 0 0 0 0
0 0 0 0 0 0 0 0 0 0 0 0 0 0 0 0 0 0 0 0 0 0 0 0 0 0 0 0 0 0 0 0 0 0 0 0 0 0 0 0 0 0 0 0
0 0 0 0 0 0 0 0 0 0 0 0 0 0 0 0 0 0 0 0 0 0 0 0 0 0 0 0 0 0 0 0 0 0 0 0 0 0 0 0 0 0 0 0
0 0 0 0 0 0 0 0 0 0 0 0 0 0 0 0 0 0 0 0 0 0 0 0 0 0 0 0 0 0 0 0 0 0 0 0 0 0 0 0 0 0 0 0
0 0 0 0 0 0 0 0 0 0 0 0 0 0 0 0 0 0 0 0 0 0 0 0 0 0 0 0 0 0 0 0 0 0 0 0 0 0 0 0 0 0 0 0
0 0 0 0 0 0 0 0 0 0 0 0 0 0 0 0 0 0 0 0 0 0 0 0 0 0 0 0 0 0 0 0 0 0 0 0 0 0 0 0 0 0 0 0
0 0 0 0 0 0 0 0 0 0 0 0 0 0 0 0 0 0 0 0 0 0 0 0 0 0 0 0 0 0 0 0 0 0 0 0 0 0 0 0 0 0 0 0
0 0 0 0 0 0 0 0 0 0 0 0 0 0 0 0 0 0 0 0 0 0 0 0 0 0 0 0 0 0 0 0 0 0 0 0 0 0 0 0 0 0 0 0
0 0 0 0 0 0 0 0 0 0 0 0 0 0 0 0 0 0 0 0 0 0 0 0 0 0 0 0 0 0 0 0 0 0 0 0 0 0 0 0 0 0 0 0
0 0 0 0 0 0 0 0 0 0 0 0 0 0 0 0 0 0 0 0 0 0 0 0 0 0 0 0 0 0 0 0 0 0 0 0 0 0 0 0 0 0 0 0
0 0 0 0 0 0 0 0 0 0 0 0 0 0 0 0 0 0 0 0 0 0 0 0 0 0 0 0 0 0 0 0 0 0 0 0 0 0 0 0 0 0 0 0
0 0 0 0 0 0 0 0 0 0 0 0 0 0 0 0 0 0 0 0 0 0 0 0 0 0 0 0 0 0 0 0 0 0 0 0 0 0 0 0 0 0 0 0
0 0 0 0 0 0 0 0 0 0 0 0 0 0 0 0 0 0 0 0 0 0 0 0 0 0 0 0 0 0 0 0 0 0 0 0 0 0 0 0 0 0 0 0
0 0 0 0 0 0 0 0 0 0 0 0 0 0 0 0 0 0 0 0 0 0 0 0 0 0 0 0 0 0 0 0 0 0 0 0 0 0 0 0 0 0 0 0
0 0 0 0 0 0 0 0 0 0 0 0 0 0 0 0 0 0 0 0 0 0 0 0 0 0 0 0 0 0 0 0 0 0 0 0 0 0 0 0 0 0 0 0
0 0 0 0 0 0 0 0 0 0 0 0 0 0 0 0 0 0 0 0 0 0 0 0 0 0 0 0 0 0 0 0 0 0 0 0 0 0 0 0 0 0 0 0
0 0 0 0 0 0 0 0 0 0 0 0 0 0 0 0 0 0 0 0 0 0 0 0 0 0 0 0 0 0 0 0 0 0 0 0 0 0 0 0 0 0 0 0
Wind_Speed
5 5 8 9 7 4 6 5 3 2 2 3 5 9 13 10 7 9 10 10 10 10 8 7 7 7 7 7 8 9 9 10 9 8 10 11 12 11 10 11 12 12 12 12
5 6 5 7 8 6 5 4 1 1 3 3 5 10 12 8 7 7 8 9 10 10 9 7 6 6 6 7 7 8 9 9 10 10 10 8 9 9 10 8 10 12 12 13
5 3 7 8 8 7 3 3 3 1 3 3 6 9 7 4 3 5 5 6 6 7 9 8 6 5 5 6 7 7 8 9 9 10 6 4 4 3 5 7 9 11 13 13
3 1 6 8 6 6 4 3 4 3 2 3 4 6 10 4 7 4 5 6 6 6 6 6 7 7 6 6 5 6 7 8 8 8 7 10 10 11 11 10 10 11 13 14
3 3 5 6 5 6 4 4 5 4 3 2 1 2 11 4 3 5 6 7 7 7 6 6 6 7 6 6 5 4 5 6 7 7 9 11 12 11 7 7 9 10 10 12
4 2 3 4 4 7 8 6 6 4 3 2 3 4 8 3 2 6 7 8 8 8 7 7 7 7 7 7 6 5 5 6 6 6 8 10 12 11 9 9 10 9 7 8
4 3 2 4 6 4 5 5 2 3 2 5 2 3 11 5 4 4 6 7 7 7 8 9 10 10 10 10 9 7 7 7 6 6 7 9 11 12 13 12 11 10 8 8
5 3 2 2 5 6 4 5 5 4 3 4 1 7 9 5 5 4 3 4 6 7 7 8 8 8 8 9 9 8 8 8 7 6 7 8 9 7 8 10 9 10 10 10
6 3 2 2 3 8 6 3 3 5 2 3 5 7 10 3 1 2 4 6 8 8 8 8 9 9 9 9 9 9 9 9 8 7 7 7 7 7 8 7 7 6 5 5
5 6 2 3 5 5 5 7 5 5 4 3 5 5 5 3 2 5 7 9 10 10 10 10 9 10 9 8 9 9 8 9 9 8 6 5 5 5 4 4 5 5 5 6
4 6 3 3 3 5 4 4 5 4 3 3 3 6 5 5 2 4 8 9 9 9 9 9 10 10 10 10 9 9 8 8 8 6 5 3 2 1 2 3 4 5 6 8
3 5 3 1 1 3 4 6 6 5 3 3 2 10 4 4 3 5 8 9 8 7 7 8 9 10 10 10 10 9 8 8 7 5 3 1 1 3 4 4 5 7 8 9
5 6 5 1 2 0 2 4 5 5 4 4 4 9 3 2 6 7 8 8 7 7 8 8 8 9 10 10 9 8 8 8 7 3 2 3 3 4 5 5 6 8 9 10
6 4 5 6 4 5 4 5 6 6 4 5 9 10 11 11 11 11 10 7 6 6 7 8 9 9 9 8 8 8 8 8 6 5 6 6 5 6 6 7 7 8 9 10
5 3 2 2 2 4 5 6 8 8 8 8 8 8 13 12 12 11 7 6 7 7 8 9 9 9 8 8 8 8 8 8 7 7 8 7 7 8 9 10 10 10 11 12
4 4 2 1 1 4 5 8 10 10 9 11 10 14 14 10 6 6 5 5 6 7 8 9 8 8 8 7 7 7 8 8 7 9 9 8 9 10 11 11 12 13 12 12
3 4 2 1 2 1 7 10 13 8 8 9 13 13 10 9 9 6 4 4 5 6 7 7 7 7 6 6 5 6 7 7 9 9 10 9 10 11 12 12 13 13 12 12
6 5 2 1 2 5 7 2 7 8 8 11 10 11 9 9 6 2 1 2 3 4 5 6 6 6 5 5 6 6 7 8 9 9 9 9 10 11 11 12 12 11 10 10
5 5 2 1 2 7 7 3 6 5 5 7 11 13 10 4 3 2 1 1 1 2 3 4 4 4 5 6 6 7 7 8 8 8 8 8 9 10 10 11 11 9 10 10
3 4 3 2 2 5 4 0 2 3 3 3 5 7 5 1 3 3 2 2 2 3 3 4 4 5 6 6 6 7 7 7 8 8 8 8 9 10 10 10 10 9 9 9
4 3 4 4 4 7 6 2 2 2 3 2 3 4 3 4 4 2 4 3 2 2 3 4 5 5 5 5 6 7 7 7 7 7 8 9 9 9 9 9 8 8 8 8
7 6 6 5 5 8 3 3 4 4 3 3 3 3 3 3 2 4 3 3 3 3 3 4 4 5 5 5 6 8 7 5 6 7 8 8 8 7 7 8 8 7 7 8
7 7 5 7 7 4 2 4 5 3 4 3 3 2 2 3 4 4 4 4 4 3 3 3 4 5 5 5 5 7 5 4 6 8 8 8 8 8 7 7 7 6 5 5
4 4 3 4 7 6 7 6 4 4 4 3 3 3 4 4 5 5 5 5 4 4 3 3 4 5 5 5 5 5 5 5 7 8 7 6 7 7 6 5 5 5 4 4
4 4 4 5 5 5 3 2 3 3 2 2 2 2 4 5 5 6 6 6 5 4 4 4 4 5 5 4 5 4 5 6 7 7 6 6 6 5 6 5 4 4 2 3
3 4 5 5 3 2 5 4 3 3 3 3 2 2 2 4 6 6 6 5 5 5 5 5 5 5 5 5 5 4 4 5 7 6 5 4 4 4 4 4 4 8 7 9
Wind_Direction
148 160 187 184 173 151 149 148 175 237 342 329 281 282 283 279 268 267 270 274 276 275 268 259 250 248 243 237 229 228 223 221 211 203 205 208 213 212 209 211 208 202 199 192
136 205 180 151 143 122 121 127 162 307 359 352 307 284 273 268 252 252 268 279 285 291 297 289 272 259 244 238 232 230 227 225 215 211 209 209 209 212 212 208 206 203 198 193
148 151 149 145 155 153 147 155 173 239 354 32 336 303 294 314 331 309 298 295 302 295 298 305 304 284 270 256 242 236 229 227 222 217 207 196 191 195 198 202 208 205 199 195
104 101 145 148 160 152 180 162 142 119 57 336 27 317 296 327 329 341 345 342 332 323 314 315 320 316 301 280 270 252 243 236 230 217 208 202 206 212 210 208 209 202 198 196
131 140 142 156 154 136 129 99 98 97 106 342 351 228 284 337 350 347 338 342 342 341 342 340 336 324 319 316 309 291 271 256 244 226 214 212 218 219 213 205 205 203 198 195
86 82 104 117 97 113 119 83 68 59 71 277 220 192 279 287 289 312 322 338 344 348 356 357 354 352 345 341 336 327 308 284 264 243 228 220 221 218 207 201 204 203 196 194
80 57 69 103 91 82 107 102 51 358 4 253 180 213 254 266 273 277 303 325 337 349 357 355 353 350 343 340 337 332 322 305 291 264 244 230 226 220 214 209 208 201 197 198
127 144 162 119 137 147 152 141 163 199 236 288 214 240 257 266 287 287 299 316 338 348 348 344 336 331 326 324 323 322 317 306 298 278 257 245 237 227 221 215 208 204 205 204
133 123 61 95 109 125 126 125 132 118 104 286 268 276 300 271 293 332 338 345 344 339 336 333 329 326 319 315 312 310 307 302 296 285 271 257 241 229 223 214 206 203 196 174
120 110 106 113 84 50 128 135 109 125 161 261 292 271 255 275 314 336 342 338 329 330 332 332 329 323 316 310 307 306 301 295 292 289 278 268 253 237 222 198 191 176 154 141
98 112 112 109 148 156 119 108 105 108 149 169 283 280 225 214 270 319 315 311 311 317 322 326 326 322 318 316 314 311 310 306 302 299 292 281 269 203 151 154 151 142 134 136
106 107 115 107 359 179 149 155 144 149 192 175 209 271 268 226 265 286 294 301 309 317 322 325 324 324 326 324 322 321 319 315 308 301 300 315 85 102 108 116 125 130 133 135
122 106 100 40 345 88 167 163 151 129 124 160 204 265 294 308 305 297 298 308 318 327 331 330 329 330 330 329 330 334 336 329 324 331 37 66 82 96 102 111 119 124 125 126
109 111 153 182 211 174 188 185 165 144 166 201 230 262 290 301 305 308 314 319 327 331 333 333 333 332 334 337 341 345 348 349 0 31 58 65 72 85 94 98 102 107 111 113
99 121 172 216 203 170 194 190 186 193 193 204 236 246 272 284 293 300 306 321 330 336 339 341 341 339 340 345 352 356 2 8 23 47 59 65 73 82 87 89 91 94 97 100
94 120 129 312 254 212 231 220 204 213 218 235 260 276 270 278 285 290 305 323 327 333 339 341 343 345 347 354 0 7 14 20 36 56 62 65 74 78 81 85 88 89 90 94
116 126 122 291 303 331 259 223 200 200 206 203 234 248 272 289 293 297 307 318 322 332 339 342 345 348 351 1 14 24 26 37 48 58 63 68 76 81 83 87 87 89 90 92
128 123 131 275 356 250 245 223 184 199 227 217 237 257 270 275 292 275 237 305 325 338 343 345 348 355 3 16 31 39 44 50 58 63 67 72 79 84 86 88 90 90 91 91
131 136 153 197 273 281 289 240 168 183 258 228 233 257 269 294 310 260 155 82 3 352 354 358 6 15 27 33 42 51 51 53 60 64 68 74 83 88 88 88 88 89 90 88
104 115 153 193 252 257 261 312 155 138 273 254 219 256 275 304 301 275 128 98 65 37 23 22 26 38 44 41 53 64 59 58 60 64 68 72 79 84 87 88 88 86 86 86
158 172 200 213 243 265 254 241 131 188 232 287 258 264 261 225 225 150 123 112 97 67 51 49 50 48 43 49 65 70 65 60 62 70 72 73 77 81 85 85 84 87 88 87
180 185 195 191 217 254 249 147 188 236 276 288 280 267 253 215 148 136 139 134 121 95 73 69 69 60 49 58 76 78 68 63 70 74 74 72 72 76 79 82 79 81 89 88
197 194 187 200 221 243 230 219 246 254 270 276 263 261 214 190 185 167 155 147 135 126 107 93 90 80 63 61 78 86 76 76 80 79 75 73 72 69 71 80 83 76 76 85
237 188 191 246 261 262 264 263 267 252 251 269 260 245 197 198 184 168 158 154 146 138 126 114 102 95 83 74 77 83 89 89 89 85 78 74 76 71 63 64 72 81 83 87
230 177 202 246 273 302 301 289 288 283 277 279 273 225 205 189 177 169 163 159 152 145 133 123 116 111 106 100 91 89 95 101 96 88 83 78 75 79 73 67 74 88 94 126
207 185 192 230 251 254 278 302 316 300 289 276 252 232 193 180 171 161 161 158 151 147 140 132 127 123 121 115 106 101 105 112 111 102 91 87 86 80 78 77 67 74 83 82